Regional Weather Roundup
Issued by NWS

Home | Current Version | Previous Version | Text Only | Print | Product List | Glossary On
Versions: 1 2 3 4 5 6 7 8 9 10 11 12 13 14 15 16 17 18 19 20 21 22 23 24 25 26 27 28 29 30 31 32 33 34 35 36 37 38 39 40 41 42 43 44 45 46 47 48 49 50
000
ASUS43 KDMX 172306
RWRIA

WEATHER ROUNDUP FOR IOWA
NATIONAL WEATHER SERVICE DES MOINES IA
600 PM CDT MON MAY 17 2021

NOTE: "FAIR" INDICATES FEW OR NO CLOUDS BELOW 12,000 FEET WITH NO
SIGNIFICANT WEATHER AND/OR OBSTRUCTIONS TO VISIBILITY.

* - THESE STATIONS ARE NOT NWS STATIONS...THUS NOT UNDER NWS
QUALITY CONTROL.  THEY ALSO DO NOT REPORT WEATHER SUCH
AS PRECIPITATION OR FOG.

IAZ001>003-012>014-020>022-031>034-043>046-180000-
   NORTHWEST IOWA

CITY           SKY/WX    TMP DP  RH WIND       PRES   REMARKS
CARROLL *      CLOUDY    61  61 100 E12       30.04S
CHEROKEE *     CLOUDY    64  59  85 SE13G18   30.05S
DENISON *      PTSUNNY   61  61 100 E10G17    30.05S
LE MARS *      CLOUDY    63  59  88 E17       30.03R
MAURICE *      CLOUDY    64  64 100 SE18G25   30.03S
SHELDON *      CLOUDY    66  61  82 E15       30.03S
SIOUX CITY     CLOUDY    64  58  80 SE14      30.02R FOG
SPENCER        CLOUDY    68  56  65 SE15      30.06S
STORM LAKE *   CLOUDY    63  63 100 SE16G23   30.06R
$$

IAZ055>058-069>071-079>083-090>094-180000-
   SOUTHWEST IOWA

CITY           SKY/WX    TMP DP  RH WIND       PRES   REMARKS
ATLANTIC *     CLOUDY    64  61  88 E18       30.00R
AUDUBON *      CLOUDY    63  59  88 E13       30.04R
CLARINDA *     CLOUDY    66  63  88 E13       30.00R
COUNCIL BLFS * CLOUDY    68  61  77 NE15      29.97S
CRESTON *      CLOUDY    63  63 100 E14       30.00S
HARLAN  *      CLOUDY    64  63  94 E14       30.01S
LAMONI         LGT RAIN  63  60  90 E8G20     29.99R FOG
RED OAK *      PTSUNNY   68  63  83 E15G25    29.98R
SHENANDOAH *   CLOUDY    70  63  78 E14G22    29.95R
$$

IAZ047>049-059>061-072>074-084-180000-
   CENTRAL IOWA

CITY           SKY/WX    TMP DP  RH WIND       PRES   REMARKS
AMES           CLOUDY    63  57  81 E12G23    30.06R
ANKENY *       CLOUDY    64  59  82 E9        30.05R
BOONE *        CLOUDY    63  59  88 E16G24    30.08R
CHARITON *       N/A     63  63 100 E13G18    30.01S
DES MOINES     CLOUDY    64  59  83 E10       30.02S
GRINNELL*      CLOUDY    66  61  84 E15G21    30.07R
KNOXVILLE *    CLOUDY    64  61  88 E10G17    30.03R
MARSHALLTOWN   CLOUDY    63  58  83 E18       30.06S
NEWTON *       CLOUDY    64  63  94 E14G20    30.05R
PELLA *        PTSUNNY   65  59  81 E8G18     30.05R
PERRY *        CLOUDY    63  60  91 E16       30.04S
$$

IAZ004>006-015-016-023>025-035-036-180000-
   NORTH CENTRAL IOWA

CITY           SKY/WX    TMP DP  RH WIND       PRES   REMARKS
ALGONA *       CLOUDY    70  55  60 E14G22    30.06R
CLARION *      CLOUDY    70  59  68 SE18G28   30.07R
ESTHERVILLE    CLOUDY    68  52  56 SE18      30.06S
FORT DODGE *   CLOUDY    67  57  70 SE15      30.06S
MASON CITY     CLOUDY    71  49  45 SE16G25   30.09S
FOREST CITY *  CLOUDY    72  50  46 SE18G24   30.08R
WEBSTER CITY * CLOUDY    66  59  77 SE22G29   30.05R
$$

IAZ007>011-017>019-026>030-037>042-050>054-066-180000-
   NORTHEAST IOWA

CITY           SKY/WX    TMP DP  RH WIND       PRES   REMARKS
CEDAR RAPIDS   CLOUDY    64  56  75 E18G29    30.08R
CHARLES CITY * CLOUDY    70  54  56 E14G20    30.09S
CLINTON *      FAIR      65  59  81 E18       30.12S
DECORAH *        N/A     70  52  52 E10G18    30.10S
DUBUQUE        CLOUDY    66  54  65 E13       30.13S
MONTICELLO *   PTSUNNY   66  59  77 E16       30.11R
OELWEIN *      PTSUNNY   72  52  49 SE23      30.10S
WATERLOO       CLOUDY    69  55  60 E17G26    30.08R
$$

IAZ064-065-067-068-078-180000-
   EAST CENTRAL IOWA

CITY           SKY/WX    TMP DP  RH WIND       PRES   REMARKS
DAVENPORT      CLOUDY    64  58  80 E13       30.12S
IOWA CITY      CLOUDY    66  57  72 E14G22    30.10R
MT. PLEASANT * PTSUNNY   64  61  88 E12G23    30.06F
MUSCATINE *    CLOUDY    66  61  82 E13G18    30.09R
QUAD CITIES    CLOUDY    65  60  84 E14       30.10S
$$

IAZ062-063-075>077-085>089-095>099-180000-
   SOUTHEAST IOWA

CITY           SKY/WX    TMP DP  RH WIND       PRES   REMARKS
BURLINGTON     CLOUDY    63  61  93 E12       30.06S
FAIRFIELD *    PTSUNNY   63  63 100 E17G25    30.05S FOG
FORT MADISON * CLOUDY    64  63  94 E12       30.06R
KEOKUK *       CLOUDY    64  64 100 E16       30.04R
OSKALOOSA *    LGT RAIN  66  62  86 E18G24    30.05R
OTTUMWA        LGT RAIN  63  61  93 E17G24    30.03S FOG
WASHINGTON *   PTSUNNY   64  64 100 E22       30.05S
$$

ABBREVIATIONS USED IN REMARKS
   TC - TEMPERATURES IN CELSIUS
  WCI - WIND CHILL INDEX
   HX - HEAT INDEX
  VSB - VISIBILITY
$$




USA.gov is the U.S. government's official web portal to all federal, state and local government web resources and services.